Weather History for Lamoni, IA

Change the Weather History Date:

Saturday, November 17, 2012

  Actual Average Record
Temperature  
Mean Temperature 47 °F 39 °F  
Max Temperature 58 °F 48 °F 71 °F (1969)
Min Temperature 36 °F 30 °F 6 °F (2014)
Degree Days  
Heating Degree Days 18 26  
Month to date heating degree days 327 376  
Since 1 July heating degree days 862 860  
Cooling Degree Days 0 0  
Month to date cooling degree days 1 0  
Year to date cooling degree days 1312 946  
Moisture  
Dew Point 32 °F    
Average Humidity 59    
Maximum Humidity 82    
Minimum Humidity 36    
Precipitation  
Precipitation 0.00 in 0.05 in 0.79 in (1971)
Month to date precipitation 1.65 1.51  
Sea Level Pressure  
Sea Level Pressure 30.35 in    
Wind  
Wind Speed 10 mph (SSE)    
Max Wind Speed 20 mph    
Max Gust Speed 24 mph    
Visibility 10 miles    
Events      
T = Trace of Precipitation, MM = Missing Value Source: NWS Daily Summary

Daily Weather History Graph

Daily Weather History Graph

Search for Another Location

Airport:

Trip Planner

Search our weather history database for the weather conditions in past years. The results will help you decide how hot, cold, wet, or windy it might be!

Date:

Astronomy

Nov. 17, 2012 Rise Set
Actual Time 7:05 AM CST 4:55 PM CST
Civil Twilight 6:35 AM CST 5:25 PM CST
Nautical Twilight 6:02 AM CST 5:58 PM CST
Astronomical Twilight 5:30 AM CST 6:30 PM CST
Moon 10:50 AM CST (11/17) 9:06 PM CST (11/17)
Length of Visible Light 10h 49m
Length of Day
9h 50m
Waxing Crescent, 20% of the Moon is Illuminated
Nov 17
Waxing Crescent
Nov 20
First Quarter
Nov 28
Full
Dec 6
Last Quarter
Dec 13
New

Hourly Weather History & Observations

Time (CST) Temp. Windchill Dew Point Humidity Pressure Visibility Wind Dir Wind Speed Gust Speed Precip Events Conditions
12:53 AM 39.9 °F 35.1 °F 30.9 °F 70% 30.39 in 10.0 mi SSE 6.9 mph - N/A   Clear
1:53 AM 39.0 °F 35.7 °F 30.9 °F 73% 30.38 in 10.0 mi SSE 4.6 mph - N/A   Clear
2:53 AM 37.9 °F 32.1 °F 32.0 °F 79% 30.38 in 10.0 mi South 8.1 mph - N/A   Clear
3:53 AM 37.9 °F 32.7 °F 32.0 °F 79% 30.39 in 10.0 mi South 6.9 mph - N/A   Clear
4:53 AM 37.0 °F 31.6 °F 32.0 °F 82% 30.39 in 10.0 mi South 6.9 mph - N/A   Clear
5:53 AM 37.0 °F 31.6 °F 30.9 °F 79% 30.39 in 10.0 mi SSE 6.9 mph - N/A   Clear
6:53 AM 37.0 °F 31.6 °F 30.9 °F 79% 30.39 in 10.0 mi SSE 6.9 mph - N/A   Clear
7:53 AM 37.9 °F 31.5 °F 30.9 °F 76% 30.40 in 10.0 mi South 9.2 mph - N/A   Clear
8:53 AM 41.0 °F 35.2 °F 33.1 °F 73% 30.41 in 10.0 mi South 9.2 mph - N/A   Clear
9:53 AM 48.0 °F - 35.1 °F 61% 30.39 in 10.0 mi SSE 6.9 mph 16.1 mph N/A   Clear
10:53 AM 51.1 °F - 34.0 °F 52% 30.39 in 10.0 mi South 15.0 mph 20.7 mph N/A   Clear
11:53 AM 55.0 °F - 35.1 °F 47% 30.36 in 10.0 mi South 13.8 mph - N/A   Clear
12:53 PM 55.9 °F - 34.0 °F 44% 30.35 in 10.0 mi South 12.7 mph 20.7 mph N/A   Clear
1:53 PM 57.0 °F - 34.0 °F 42% 30.32 in 10.0 mi SSE 13.8 mph 23.0 mph N/A   Clear
2:53 PM 57.0 °F - 30.9 °F 37% 30.30 in 10.0 mi South 15.0 mph 23.0 mph N/A   Clear
3:53 PM 55.9 °F - 30.9 °F 39% 30.30 in 10.0 mi SSE 11.5 mph 23.0 mph N/A   Clear
4:53 PM 52.0 °F - 30.9 °F 45% 30.30 in 10.0 mi SSE 8.1 mph - N/A   Clear
5:53 PM 50.0 °F - 33.1 °F 52% 30.30 in 10.0 mi SSE 9.2 mph - N/A   Clear
6:53 PM 48.0 °F - 32.0 °F 54% 30.31 in 10.0 mi SSE 6.9 mph - N/A   Clear
8:53 PM 46.0 °F 41.0 °F 32.0 °F 58% 30.30 in 10.0 mi SSE 10.4 mph - N/A   Clear
9:53 PM 45.0 °F 40.6 °F 30.0 °F 56% 30.29 in 10.0 mi SSE 8.1 mph - N/A   Clear
10:53 PM 44.1 °F 38.1 °F 30.0 °F 58% 30.29 in 10.0 mi SE 11.5 mph - N/A   Clear
11:53 PM 44.1 °F 38.6 °F 28.9 °F 55% 30.28 in 10.0 mi SSE 10.4 mph - N/A   Clear